Location: Dob?e?
(49.9411°N, 15.1496°E)
Time: 14:58:41
(UTC+00:00)

ISS - Visible Passes

Search period start: 23 July 2021 00:00
Search period end: 02 August 2021 00:00
Orbit: 419 x 421 km, 51.6° (Epoch: 22 July)

Date Brightness Start Highest point End Pass type
(mag) Time Alt. Az. Time Alt. Az. Time Alt. Az.
23 Jul -3.3 19:30:00 10° W 19:33:22 63° N 19:36:44 10° E visible
23 Jul -3.9 21:06:55 10° WNW 21:10:18 82° SSW 21:11:44 32° ESE visible
23 Jul -1.2 22:44:08 10° W 22:44:40 13° W 22:44:40 13° W visible
24 Jul -3.7 20:19:36 10° WNW 20:23:00 81° NNE 20:25:52 14° ESE visible
24 Jul -2.4 21:56:35 10° W 21:58:49 27° WSW 21:58:49 27° WSW visible
25 Jul -3.5 19:32:16 10° WNW 19:35:39 70° N 19:39:01 10° E visible
25 Jul -3.3 21:09:10 10° WNW 21:12:24 44° SSW 21:12:58 40° S visible
26 Jul -3.7 20:21:48 10° WNW 20:25:09 61° SSW 20:27:10 22° SE visible
26 Jul -1.2 21:59:29 10° WSW 22:00:07 12° WSW 22:00:07 12° WSW visible
27 Jul -3.7 19:34:27 10° WNW 19:37:50 81° SSW 19:41:13 10° ESE visible
27 Jul -2.1 21:11:40 10° W 21:14:19 21° SW 21:14:20 21° SW visible
28 Jul -2.6 20:24:06 10° W 20:27:07 31° SSW 20:28:36 21° SSE visible
29 Jul -3.1 19:36:39 10° WNW 19:39:53 43° SSW 19:42:54 11° SE visible
30 Jul -1.5 20:26:57 10° WSW 20:28:54 15° SW 20:30:12 12° SSW visible
31 Jul -1.9 19:39:05 10° W 19:41:44 21° SW 19:44:22 10° SSE visible
